Вернуться в каталог

STARLINK-31167

АктивенСвязьVLEO
NORAD 58744·PAYLOAD·🇺🇸 United States

Запущен Jan 7, 2024 с Cape Canaveral Space Force Station

Loading…

Ближайшие Пролёты (ближайшие 24 часа)

TLE

СвежийSource: CelesTrak SupGP

Эпоха: Sep 14, 2026, 21:15 UTC

1 58744C 24005S   26257.88590278  .00006954  00000+0  25190-3 0  2578
2 58744  43.0035  85.8297 0001473 273.9312 267.0864 15.27572481    12

Отслеживайте STARLINK-31167 в реальном времени с AllMySat

Download on the App Store